EW9581 Weather Reports


time (UTC)temp
F
wind
direction
speed
knots
gust
knots
rain 1hr
in
rain 24hr
in
rain mn
in
humidity
%
barometer
mb
20260510161550 84 120 0.0 1.7 0.00 0.00 0.00 36 1017.0
20260510160051 84 131 0.0 1.7 0.00 0.00 0.00 41 1017.0
20260510154552 83 131 0.0 1.7 0.00 0.00 0.00 41 1017.2
20260510153044 81 145 0.0 1.7 0.00 0.00 0.00 44 1017.4
20260510151547 80 151 0.0 2.6 0.00 0.00 0.00 49 1017.4
20260510150044 79 127 0.9 2.6 0.00 0.00 0.00 47 1017.4
20260510144549 78 157 0.0 1.7 0.00 0.00 0.00 54 1017.3
20260510143043 76 176 0.0 2.6 0.00 0.00 0.00 59 1017.2
20260510141529 75 148 0.0 0.9 0.00 0.00 0.00 64 1017.1
20260510140025 73 162 0.0 0.9 0.00 0.00 0.00 67 1017.3
20260510134522 71 131 0.0 0.0 0.00 0.00 0.00 72 1017.3
20260510133017 69 131 0.0 0.9 0.00 0.00 0.00 72 1017.4
20260510131532 68 131 0.0 0.9 0.00 0.00 0.00 68 1017.3
20260510130010 67 130 0.0 0.0 0.00 0.00 0.00 43 1017.1
20260510124505 65 130 0.0 0.9 0.00 0.00 0.00 11 1016.9
20260510123002 63 130 0.0 0.9 0.00 0.00 0.00 9 1016.8
20260510121559 62 130 0.0 0.0 0.00 0.00 0.00 10 1016.7
20260510120056 58 130 0.0 0.0 0.00 0.00 0.00 14 1016.6
20260510114555 57 130 0.0 0.0 0.00 0.00 0.00 16 1016.4
20260510113100 57 130 0.0 0.0 0.00 0.00 0.00 16 1016.4
20260510111554 56 130 0.0 0.0 0.00 0.00 0.00 18 1016.1
20260510110049 56 130 0.0 0.0 0.00 0.00 0.00 18 1015.7
20260510104547 56 130 0.0 0.0 0.00 0.00 0.00 18 1015.6
20260510103045 56 130 0.0 0.0 0.00 0.00 0.00 19 1015.2
20260510101553 56 130 0.0 0.0 0.00 0.00 0.00 19 1015.1
20260510100041 56 130 0.0 0.0 0.00 0.00 0.00 20 1014.7
20260510094539 57 130 0.0 0.0 0.00 0.00 0.00 19 1014.7
20260510093037 57 130 0.0 0.0 0.00 0.00 0.00 19 1014.5
20260510091537 57 130 0.0 0.0 0.00 0.00 0.00 19 1014.5
20260510090038 57 130 0.0 0.0 0.00 0.00 0.00 20 1014.3
20260510084537 57 130 0.0 0.0 0.00 0.00 0.00 21 1014.0
20260510083033 57 130 0.0 0.0 0.00 0.00 0.00 22 1014.1
20260510081533 57 130 0.0 0.0 0.00 0.00 0.00 22 1014.0
20260510080034 57 130 0.0 0.0 0.00 0.00 0.00 23 1014.0
20260510074530 58 130 0.0 0.0 0.00 0.00 0.00 20 1013.9
20260510073030 58 130 0.0 0.0 0.00 0.00 0.00 22 1013.7
20260510071528 58 130 0.0 0.0 0.00 0.00 0.00 23 1013.6
20260510070026 58 130 0.0 0.0 0.00 0.00 0.00 24 1013.6
20260510064543 58 130 0.0 0.0 0.00 0.00 0.00 25 1013.7
20260510063028 58 130 0.0 0.0 0.00 0.00 0.00 30 1013.5
20260510061523 59 130 0.0 0.0 0.00 0.00 0.00 26 1013.6
20260510060022 59 130 0.0 0.0 0.00 0.00 0.00 27 1014.0
20260510054522 59 130 0.0 0.0 0.00 0.00 0.00 28 1013.9
20260510053036 58 130 0.0 0.0 0.00 0.00 0.00 37 1014.2
20260510051516 59 130 0.0 0.0 0.00 0.00 0.00 37 1014.2
20260510050017 60 130 0.0 0.0 0.00 0.00 0.00 37 1014.2
20260510044511 60 130 0.0 0.0 0.00 0.00 0.00 36 1014.3
20260510043009 60 130 0.0 0.0 0.00 0.00 0.00 43 1014.0
20260510041506 61 130 0.0 0.0 0.00 0.00 0.00 42 1014.2
20260510040002 61 130 0.0 0.0 0.00 0.00 0.00 43 1014.1
20260510034502 62 130 0.0 0.0 0.00 0.00 0.00 42 1014.1
20260510033001 62 130 0.0 0.0 0.00 0.00 0.00 42 1013.9
20260510031502 61 130 0.0 0.0 0.00 0.00 0.00 44 1014.0
20260510030110 61 131 0.0 0.0 0.00 0.00 0.00 49 1013.7
20260510024601 61 129 0.0 0.0 0.00 0.00 0.00 56 1013.7
20260510023100 62 129 0.0 0.0 0.00 0.00 0.00 57 1013.7
20260510021605 62 129 0.0 0.0 0.00 0.00 0.00 63 1013.8
20260510020059 62 129 0.0 0.0 0.00 0.00 0.00 67 1013.4
20260510014602 63 129 0.0 0.0 0.00 0.00 0.00 72 1013.3
20260510013126 64 129 0.0 0.0 0.00 0.00 0.00 75 1012.8
20260510011557 65 129 0.0 0.0 0.00 0.00 0.00 77 1012.7
20260510010057 65 129 0.0 0.0 0.00 0.00 0.00 78 1012.6
20260510004556 67 129 0.0 0.0 0.00 0.00 0.00 77 1012.5
20260510003105 68 129 0.0 0.9 0.00 0.00 0.00 76 1012.6
20260510001555 68 130 0.0 0.0 0.00 0.00 0.00 75 1012.4
20260510000116 69 130 0.0 3.5 0.00 0.00 0.00 74 1012.4
20260509234553 70 126 0.0 0.9 0.00 0.00 0.00 73 1012.0
20260509233051 71 122 0.0 2.6 0.00 0.00 0.00 72 1012.0
20260509231550 72 122 0.0 3.5 0.00 0.00 0.00 71 1011.9
20260509230049 72 121 0.9 3.5 0.00 0.00 0.00 69 1011.5
20260509224545 73 128 0.9 4.3 0.00 0.00 0.00 68 1011.5
20260509223042 73 122 1.7 6.1 0.00 0.00 0.00 67 1011.6
20260509221539 73 127 2.6 7.0 0.00 0.00 0.00 66 1011.6
20260509220042 74 136 2.6 6.1 0.00 0.00 0.00 64 1011.7
20260509214539 73 98 0.9 6.1 0.00 0.00 0.00 66 1011.8
20260509213035 75 127 1.7 4.3 0.00 0.00 0.00 64 1011.6
20260509211535 73 108 2.6 7.0 0.00 0.00 0.00 65 1011.4
20260509210037 74 117 1.7 4.3 0.00 0.00 0.00 64 1011.5
20260509204532 74 129 1.7 6.1 0.00 0.00 0.00 64 1011.5
20260509203037 73 120 2.6 8.7 0.00 0.00 0.00 64 1011.7
20260509201531 73 141 2.6 7.8 0.00 0.00 0.00 64 1011.6
20260509200036 73 131 2.6 8.7 0.00 0.00 0.00 62 1011.7
20260509194544 74 131 0.9 6.1 0.00 0.00 0.00 59 1012.0
20260509193035 74 125 0.9 8.7 0.00 0.00 0.00 58 1012.0
20260509191529 74 126 0.9 7.8 0.00 0.00 0.00 58 1012.1
20260509190026 75 124 3.5 10.4 0.00 0.00 0.00 55 1012.1
20260509184522 75 129 1.7 10.4 0.00 0.00 0.00 56 1012.3
20260509183020 76 132 1.7 7.0 0.00 0.00 0.00 55 1012.3
20260509181516 74 90 0.9 9.6 0.00 0.00 0.00 58 1012.4
20260509180012 74 124 4.3 7.8 0.00 0.00 0.00 54 1012.7
20260509174528 74 131 1.7 9.6 0.00 0.00 0.00 57 1012.9
20260509173009 73 110 0.9 10.4 0.00 0.00 0.00 58 1013.1
20260509171509 73 120 2.6 8.7 0.00 0.00 0.00 57 1013.3
20260509170005 73 128 2.6 8.7 0.00 0.00 0.00 57 1013.6
20260509164504 73 103 0.9 6.1 0.00 0.00 0.00 58 1013.7
20260509163005 73 127 1.7 7.0 0.00 0.00 0.00 60 1013.5